Regional Weather Roundup
Issued by NWS

Home | Current Version | Previous Version | Graphics & Text | Print | Product List | Glossary On
Versions: 1 2 3 4 5 6 7 8 9 10 11 12 13 14 15 16 17 18 19 20 21 22 23 24 25 26 27 28 29 30 31 32 33 34 35 36 37 38 39 40 41 42 43 44 45 46 47 48 49 50
000
ASUS45 KBOU 240707
RWRCO

WEATHER ROUNDUP FOR COLORADO
NATIONAL WEATHER SERVICE DENVER/BOULDER CO
100 AM MDT MON APR 24 2017

NOTE: "FAIR" INDICATES FEW OR NO CLOUDS BELOW 12000 FEET WITH NO
SIGNIFICANT WEATHER AND/OR OBSTRUCTIONS TO VISIBILITY.

COZ001>005-013-030-031-240800-
...NORTHWEST COLORADO...

CITY           SKY/WX    TMP DP  RH WIND       PRES   REMARKS
CRAIG          LGT RAIN  45  40  82 CALM      29.87R
HAYDEN         MOCLDY    43  36  75 W9        29.87S
MEEKER         LGT RAIN  50  38  63 W8        29.86R
MOUNT WERNER   NOT AVBL
STEAMBOAT SPGS CLOUDY    45  36  69 SW7       29.86S
WALDEN           N/A     41  30  65 SW8       29.88F
$$

COZ006>008-011-240800-
...WEST CENTRAL VALLEYS...

CITY           SKY/WX    TMP DP  RH WIND       PRES   REMARKS
GRAND JUNCTION FAIR      60  33  36 W13       29.78R
MONTROSE       MOCLDY    62  23  22 W12       29.83R
EAGLE          CLOUDY    57  26  30 NW10      29.81R
RIFLE          CLOUDY    57  33  40 NW15G26   29.81R
DELTA          FAIR      66  27  23 W10G18    29.77S
NUCLA          FAIR      59  23  25 NW12      29.88R
$$

COZ017>023-064>068-240800-
...SOUTHWEST COLORADO...

CITY           SKY/WX    TMP DP  RH WIND       PRES   REMARKS
DURANGO        FAIR      54  17  23 SW8       29.90S
CORTEZ         FAIR      54  23  30 S16       29.85S
PAGOSA SPRINGS FAIR      54  18  24 SW8       29.94F
TELLURIDE      CLOUDY    52  14  21 SW24G37   29.99S
WOLF CREEK PAS CLOUDY    32  18  55 S20G29    30.13F WCI  20
$$

COZ009-010-012-014-032>034-037-058>063-240800-
...CENTRAL COLORADO...

CITY           SKY/WX    TMP DP  RH WIND       PRES   REMARKS
ASPEN          CLOUDY    52  26  36 SW16G31   29.89R
BUENA VISTA    FAIR      45  17  32 NE3       29.83F
COPPER MTN     CLOUDY    37  19  48 SW17G23   30.03F
BERTHOUD PASS  FAIR      32  21  64 W30G48    30.00F WCI  18
COTTONWOOD PAS FAIR      50  10  20 SW17G28   29.91F
GUNNISON       FAIR      43  24  47 N7        29.87S
KREMMLING      CLOUDY    50  34  53 NE7G18    29.87R
LEADVILLE      MOCLDY    42  19  39 S7        29.90F
MONARCH PASS   FAIR      36  16  44 SW36      30.11F
SALIDA         FAIR      51  19  27 W8        29.89F
SUNLIGHT       MIX PCPN  34  23  64 SW12G24   30.02S WCI  25
WILKERSON PASS FAIR      36  14  41 SW9G20    30.00F
$$

COZ069>075-240800-
...SAN LUIS VALLEY/SANGRE DE CRISTO MOUNTAINS...

CITY           SKY/WX    TMP DP  RH WIND       PRES   REMARKS
ALAMOSA        FAIR      50  23  34 SW16G25   29.86F
LA VETA PASS   FAIR      43  23  45 SW23G43   30.09F
SAGUACHE       FAIR      37  19  48 NW3       29.87F
$$

COZ035-036-038>040-240800-
...NORTHERN COLORADO FRONT RANGE...

CITY           SKY/WX    TMP DP  RH WIND       PRES   REMARKS
DENVER INTL AP MOCLDY    50  38  63 S12       29.65F
DMNS CITY PARK   N/A     52  36  54 SE7G13    29.65S
AURORA         MOCLDY    49  37  64 S12       29.66F
FRONT RANGE AP FAIR      52  37  58 SW6       29.66F
ERIE MUNI ARPT FAIR      46  36  68 S3        29.63F
BOULDER MUN AP FAIR      55  28  35 S5        29.62F
CENTENNIAL     FAIR      53  32  44 S14       29.67F
BROOMFIELD     FAIR      55  28  35 SE5       29.66F
FORT COLLINS   FAIR      47  41  80 N8        29.64R
LONGMONT       FAIR      47  36  64 W3        29.63F
$$

COZ041-046-047-076>085-087-088-240800-
...PIKES PEAK/PALMER DIVIDE AND SOUTHERN FOOTHILLS...

CITY           SKY/WX    TMP DP  RH WIND       PRES   REMARKS
COLO. SPRINGS  FAIR      55  33  43 SE7       29.73F
A. F. ACADEMY  FAIR      50  27  40 CALM      29.73F
SCHRIEVER AFB  FAIR      53  30  40 S8        29.73F
ELLICOTT       FAIR     N/A N/A N/A CALM      29.71F
FALCON         FAIR      52  26  36 SW5       29.77F
FORT CARSON    FAIR      57  26  29 W10       29.70F
LIMON          FAIR      44  39  82 SE6       29.67F
MONUMENT HILL  FAIR      41  23  48 S8        29.77F
TRINIDAD       FAIR      52  32  46 W6        29.77F
$$

COZ042>045-048>051-090-091-240800-
...NORTHEAST COLORADO...

CITY           SKY/WX    TMP DP  RH WIND       PRES   REMARKS
GREELEY ARPT   FAIR      45  41  86 NW7       29.63R
AKRON          FAIR      50  39  66 SW10      29.59F
BURLINGTON     NOT AVBL
WRAY           NOT AVBL
STERLING       FAIR      48  43  81 W8        29.58S
HOLYOKE        FAIR      54  43  66 CALM      29.60F
FORT MORGAN    FAIR      47  39  75 N8        29.60F
$$

COZ086-089-092>099-240800-
...SOUTHEAST COLORADO...

CITY           SKY/WX    TMP DP  RH WIND       PRES   REMARKS
PUEBLO         FAIR      47  41  80 CALM      29.65F
LA JUNTA       FAIR      65  36  34 SW21      29.63F
LAMAR          FAIR      61  37  41 S20       29.60F
SPRINGFIELD      N/A     52  36  54 S18       29.74F
$$



USA.gov is the U.S. government's official web portal to all federal, state and local government web resources and services.